Regional Weather Roundup
Issued by NWS

Home | Current Version | Previous Version | Graphics & Text | Print | Product List | Glossary Off
Versions: 1 2 3 4 5 6 7 8 9 10 11 12 13 14 15 16 17 18 19 20 21 22 23 24 25 26 27 28 29 30 31 32 33 34 35 36 37 38 39 40 41 42 43 44 45 46 47 48 49 50

000
ASUS43 KBIS 191610
RWRND

NORTH DAKOTA REGIONAL WEATHER ROUNDUP
NATIONAL WEATHER SERVICE BISMARCK ND
1000 AM CST MON FEB 19 2018

NOTE: "FAIR" INDICATES FEW OR NO CLOUDS BELOW 12,000 FEET WITH NO
SIGNIFICANT WEATHER AND/OR OBSTRUCTIONS TO VISIBILITY.


NDZ001>003-009>011-017-191700-
NORTHWEST NORTH DAKOTA

CITY           SKY/WX    TMP DP  RH WIND       PRES   REMARKS
WILLISTON      PTSUNNY   -8 -12  83 CALM      30.21R
MINOT          CLOUDY    -2 -11  65 CALM      30.21S
MINOT AFB      CLOUDY    -6 -13  68 CALM      30.21R
$$

NDZ018>021-031>035-040>046-191700-
SOUTHWEST NORTH DAKOTA

CITY           SKY/WX    TMP DP  RH WIND       PRES   REMARKS
BISMARCK       CLOUDY     3  -6  66 NE8       30.21S WCI -10
DICKINSON      CLOUDY     1 -10  60 E6        30.11R WCI -10
GARRISON         N/A     -1 -11  62 N5        30.19S WCI -11
HETTINGER ARPT CLOUDY     1  -9  62 NE12      30.08F WCI -16
$$

NDZ004>008-012>016-024-026-027-054-191700-
NORTHEAST NORTH DAKOTA

CITY           SKY/WX    TMP DP  RH WIND       PRES   REMARKS
GRAND FORKS    CLOUDY    -1  -8  72 N16       30.29R WCI -21
GRND FRKS AFB  FAIR       0  -9  66 N15       30.28R WCI -19
DEVILS LAKE    FAIR      -7 -13  75 N6        30.25S WCI -20
$$

NDZ022-023-025-028>030-036>039-047>053-191700-
SOUTHEAST NORTH DAKOTA

CITY           SKY/WX    TMP DP  RH WIND       PRES   REMARKS
FARGO          FAIR       6  -1  73 N17       30.19F WCI -13
JAMESTOWN      CLOUDY     4  -5  66 NE18      30.17S WCI -16
$$





USA.gov is the U.S. government's official web portal to all federal, state and local government web resources and services.